Volver al catálogo

FENGYUN 1C DEB

ActivoSSO
NORAD 30076·DEBRIS·🇨🇳 China

Lanzado May 10, 1999 desde Taiyuan Satellite Launch Center

Loading…

Próximos Pases (próximas 24 horas)

TLE

ActualizadoSource: Space-Track

Época: Sep 14, 2026, 05:57 UTC

1 30076U 99025QD  26257.24800573  .00000177  00000-0  19998-3 0  9996
2 30076  99.2644 241.3547 0175947  87.6455 288.2845 13.76460466986841

Sigue FENGYUN 1C DEB en tiempo real con AllMySat

Download on the App Store